Starlink 31126

operational
NORAD ID: 58675 Int'l Des: 2023-211 Owner: SPXS Country: US Constellation: starlink
LEOCIRCULAR

Über Starlink 31126

Beschreibung wird geladen...

Live-Position

3D-Globus wird geladen...

Nächste Überflüge

Höhenverlauf

Altitude vs Time

uPlot chart will show altitude changes over time

Zweizeiliger Elementsatz

1 58675U 23211J 25261.22485256 -.00000288 00000-0 -92162-6 0 9996
2 58675 43.0064 338.8067 0002136 280.1981 79.8629 15.27571569 96099
Epoch: 18. Sept. 2025 • Age: 19 hours

Aktueller Status

Höhe 487.1 km
Geschwindigkeit 7.62 km/s
Subsatellitenpunkt -22.03°S, 50.55°W
Startdatum 29. Dez. 2023
Alter 1.7 years
Typ internet

Technische Details

Klassifizierung Payload
Masse 730.00 kg
Trockenmasse 700.00 kg
Gesamtmasse 730.00 kg
Länge 0.30 m
Durchmesser 4.10 m
Spannweite 29.00 m
Form Box + pan
Hersteller SPXS
Bus-Typ Starlink V2M
Phasenstatus In Orbit
Besitzer/Staat SPXS/US

Große Konstellationen

Loading constellations...